Regional Weather Roundup
Issued by NWS Charleston, WV

Home | Current Version | Previous Version | Text Only | Print | Product List | Glossary On
Versions: 1 2 3 4 5 6 7 8 9 10 11 12 13 14 15 16 17 18 19 20 21 22 23 24 25 26 27 28 29 30 31 32 33 34 35 36 37 38 39 40 41 42 43 44 45 46 47 48 49 50
000
ASUS41 KRLX 120610
RWRRLX
Regional Weather Roundup
National Weather Service Charleston WV
100 AM EST TUE NOV 12 2019

Note: "fair" indicates few or no clouds below 12,000 feet with no
significant weather and/or obstructions to visibility.

WVZ003-120700-
Northern Panhandle of West Virginia

CITY           SKY/WX    TMP DP  RH WIND       PRES   REMARKS
WHEELING       LGT SNOW  33  31  92 W7        29.91R FOG
$$

WVZ009-120700-
Northwest West Virginia

CITY           SKY/WX    TMP DP  RH WIND       PRES   REMARKS
PARKERSBURG    LGT SNOW  33  31  92 W8        30.03R FOG
$$

WVZ006-120700-
Western West Virginia

CITY           SKY/WX    TMP DP  RH WIND       PRES   REMARKS
HUNTINGTON     LGT SNOW  32  30  92 NW12G21   30.08R VSB 3/4
$$

WVZ015-120700-
West Central West Virginia

CITY           SKY/WX    TMP DP  RH WIND       PRES   REMARKS
CHARLESTON     FLURRIES  34  31  88 NW14G24   30.02R
$$

WVZ022-031-120700-
North Central West Virginia

CITY           SKY/WX    TMP DP  RH WIND       PRES   REMARKS
MORGANTOWN     LGT RAIN  43  39  86 W9G17     29.87R
CLARKSBURG     LGT RAIN  45  40  82 W12       29.88R
BUCKHANNON     LGT RAIN  43  41  93 W13       29.88R
$$

WVZ025-035-042-045-120700-
Southern West Virginia

CITY           SKY/WX    TMP DP  RH WIND       PRES   REMARKS
BECKLEY        LGT RAIN  41  38  89 NW16G29   29.92R
LOGAN          LGT RAIN  37  37 100 CALM      29.99R
PINEVILLE      RAIN      46  43  88 MISG      30.00R
BLUEFIELD      LGT RAIN  46  42  86 W15       29.90F
LEWISBURG      DRIZZLE   49  44  80 SW6       29.88F
$$

WVZ047-120700-
Northern Mountains of West Virginia

CITY           SKY/WX    TMP DP  RH WIND       PRES   REMARKS
ELKINS         LGT RAIN  45  39  79 W22G30    29.86R
$$

WVZ052-120700-
Eastern Panhandle of West Virginia

CITY           SKY/WX    TMP DP  RH WIND       PRES   REMARKS
MARTINSBURG    LGT RAIN  58  40  51 S5        29.73F
PETERSBURG     MOCLDY    57  41  54 W10G16    29.78R
$$

Southeast Ohio/Northeast Kentucky

CITY           SKY/WX    TMP DP  RH WIND       PRES   REMARKS
ATHENS         LGT SNOW  31  31 100 W12       30.04R
ASHLAND        LGT SNOW  32  30  93 VRB6      30.11R FOG
$$



USA.gov is the U.S. government's official web portal to all federal, state and local government web resources and services.